Temp
69 71 65 65 55 51 47 51 55 59 57 59 64 62 60 61 60 49 66 71 73 73 74 73 74 75 76 77 76 76 76 77 77 78 77 77 77 77 77 77 76 75 76 77 78 78 78 77 77
68 76 66 58 50 45 47 51 56 58 62 62 64 62 62 58 65 65 65 71 73 73 73 73 73 74 75 76 76 76 76 76 77 77 77 77 77 77 78 77 76 76 76 77 77 78 78 77 76
71 74 59 54 48 46 48 52 56 60 65 61 59 64 58 57 64 63 67 69 71 72 71 71 72 73 74 74 75 76 76 76 77 77 76 77 78 78 77 77 76 76 76 77 77 78 77 77 76
68 64 59 52 50 54 55 54 59 60 62 65 62 55 60 64 65 65 68 69 68 69 71 70 72 73 73 73 74 74 75 76 75 76 77 77 77 76 76 76 75 75 76 77 77 77 77 76 76
65 58 51 48 50 55 56 61 61 61 60 59 62 53 55 62 64 65 66 67 66 66 67 67 70 72 72 72 73 73 73 74 75 75 75 75 75 75 75 75 75 75 76 76 76 76 76 75 75
59 57 48 46 50 56 56 62 59 58 60 60 59 54 52 61 62 63 64 63 66 65 66 66 67 67 70 70 70 71 72 73 73 74 74 74 74 74 75 74 75 75 75 75 76 75 74 75 75
55 51 47 47 53 55 58 61 58 57 55 58 59 52 53 56 59 60 61 60 62 63 65 64 64 65 66 67 69 69 71 72 72 72 72 72 72 73 73 73 73 74 74 74 74 74 73 74 74
57 54 49 49 52 51 57 59 62 59 56 60 58 48 45 53 59 59 59 58 59 62 62 62 64 64 64 64 66 66 68 69 69 70 69 67 68 68 69 68 69 73 73 73 73 73 73 73 73
60 50 48 50 53 53 59 57 63 60 55 55 57 53 55 56 57 56 55 57 58 60 60 61 61 62 62 65 65 64 65 66 67 67 66 65 66 68 68 67 68 70 72 72 72 72 72 71 70
55 48 51 55 53 53 56 57 58 55 53 50 52 55 56 55 53 51 51 52 53 55 57 58 58 59 60 64 62 61 63 63 64 66 66 67 68 70 69 65 65 67 68 69 71 71 70 66 66
55 51 56 57 59 59 56 56 56 53 47 48 48 50 52 52 50 49 49 49 49 51 53 56 57 59 57 58 58 58 59 58 60 62 63 65 65 66 65 65 64 63 61 64 66 66 65 64 66
52 59 59 59 58 58 55 56 52 51 49 53 52 52 51 49 48 48 48 49 49 51 52 53 54 56 55 55 55 56 56 57 57 59 61 61 62 63 64 64 63 63 63 62 62 62 62 64 65
53 56 59 59 59 56 58 55 50 48 51 54 54 52 49 48 48 49 49 49 49 49 51 52 52 52 56 55 55 55 55 55 55 56 59 60 60 61 63 64 63 62 61 61 61 61 60 60 61
54 56 57 57 58 57 55 53 52 50 51 51 52 49 48 48 48 47 48 48 49 50 49 51 52 52 53 53 53 53 54 55 54 53 55 58 58 58 60 62 62 63 63 62 61 61 60 60 61
55 51 53 55 56 55 54 49 50 52 51 50 49 48 48 48 48 47 46 47 47 48 49 51 55 55 53 54 54 53 53 54 54 53 53 54 55 55 56 57 61 62 63 62 61 60 59 59 59
49 48 43 53 55 55 52 43 46 51 49 45 45 43 46 47 48 47 47 47 47 48 47 51 54 53 53 53 53 54 53 52 53 52 50 51 53 53 52 55 55 60 63 62 61 59 58 58 58
45 40 44 47 55 51 49 45 50 50 48 43 42 44 45 45 46 45 46 45 46 48 45 49 51 51 51 52 52 52 50 49 52 51 51 50 51 53 52 52 52 53 55 62 62 60 60 57 57
40 40 44 43 51 50 46 46 47 47 46 42 41 42 43 43 44 47 46 46 46 45 44 46 49 50 50 50 50 49 50 49 50 51 50 50 51 52 49 50 51 51 51 51 62 60 60 59 58
45 43 41 46 52 48 45 45 43 45 43 39 39 40 41 43 43 46 46 44 44 44 43 45 47 48 48 46 44 44 45 46 48 49 50 51 51 50 48 46 48 50 49 50 49 59 59 58 59
46 42 41 47 49 45 44 43 48 45 43 42 40 40 40 41 41 44 43 42 41 41 42 45 46 46 46 46 45 45 44 44 46 47 48 49 49 50 48 45 46 48 48 48 50 50 58 59 58
43 41 40 42 44 45 42 38 39 41 42 42 43 42 41 41 41 40 43 40 39 39 39 44 45 45 45 44 43 42 41 40 39 41 43 44 47 49 48 45 45 46 47 47 48 48 49 56 57
39 44 43 41 36 31 39 30 32 37 39 41 41 37 38 39 41 41 40 38 38 40 40 43 43 43 44 41 39 36 32 30 34 35 37 37 43 46 48 47 44 44 44 43 47 49 48 53 55
43 43 41 39 36 31 35 29 34 38 35 37 36 37 37 39 40 37 39 41 41 40 39 39 39 41 40 38 37 33 31 31 32 32 32 34 37 42 45 47 43 43 43 43 46 47 47 46 57
45 41 40 37 33 23 34 34 29 31 38 38 36 36 39 39 38 38 40 41 39 38 38 37 38 39 38 37 35 32 30 29 28 28 29 31 35 36 39 45 44 43 43 43 44 45 48 48 54
40 35 27 23 21 24 32 28 37 37 40 40 35 35 37 37 36 36 36 36 38 37 37 39 38 36 36 34 33 31 30 29 27 27 28 28 30 32 34 38 41 43 44 43 43 44 46 47 44
37 36 26 19 18 24 31 26 33 36 39 39 38 36 37 36 36 36 36 36 37 36 38 37 36 34 34 33 31 31 29 28 27 28 27 26 27 29 34 36 38 43 43 43 43 43 45 46 46
36 31 36 27 8 12 24 30 35 35 36 35 34 35 34 35 35 36 36 36 35 35 37 34 34 34 33 31 30 29 28 27 25 25 25 26 28 30 32 35 37 39 42 42 42 41 43 46 46
36 39 29 29 17 10 21 26 31 30 33 33 33 32 34 33 34 34 34 35 35 35 35 34 34 32 32 30 29 28 27 26 25 24 24 25 25 27 30 31 33 37 40 41 41 40 41 44 46
30 30 32 32 28 20 13 25 34 35 36 32 32 34 34 33 33 34 34 34 34 33 32 33 32 30 30 29 28 26 25 25 24 23 23 23 26 25 27 28 32 34 34 40 39 39 39 41 44
34 33 35 28 24 25 25 26 40 39 37 34 33 34 35 36 34 33 33 32 31 31 32 31 30 29 29 28 26 25 24 24 22 21 21 22 21 23 25 26 28 31 34 36 39 38 39 38 40
MSLP
1012.30 1012.10 1012.78 1013.01 1014.05 1014.30 1014.15 1013.63 1013.12 1012.89 1012.86 1012.92 1012.89 1013.28 1014.16 1014.67 1014.97 1017.01 1016.52 1015.97 1015.04 1014.84 1014.55 1014.61 1014.54 1014.72 1014.89 1014.83 1014.89 1014.80 1014.88 1015.03 1015.11 1015.22 1015.31 1015.35 1015.43 1015.53 1015.48 1015.62 1015.78 1015.89 1015.91 1015.86 1015.71 1015.55 1015.36 1015.27 1015.09
1012.25 1012.09 1012.76 1013.28 1013.94 1014.76 1014.37 1013.66 1013.28 1012.88 1012.73 1012.66 1012.90 1013.39 1014.33 1015.80 1015.72 1016.56 1016.88 1016.10 1015.34 1015.16 1014.91 1014.91 1015.21 1015.13 1015.01 1014.86 1014.91 1014.86 1014.92 1014.92 1015.02 1014.94 1015.08 1015.03 1015.17 1015.16 1015.26 1015.31 1015.36 1015.46 1015.59 1015.61 1015.55 1015.44 1015.28 1015.18 1015.05
1012.38 1012.30 1013.43 1013.61 1013.94 1014.16 1014.18 1013.53 1012.96 1012.93 1012.56 1012.80 1013.37 1014.23 1016.28 1017.88 1017.26 1017.54 1017.43 1016.69 1015.85 1015.61 1015.54 1015.48 1015.25 1015.42 1015.47 1015.29 1015.12 1014.81 1014.74 1014.76 1014.82 1014.88 1014.89 1014.87 1014.82 1014.84 1014.98 1015.07 1015.16 1015.11 1015.13 1015.22 1015.21 1015.20 1015.14 1015.09 1014.97
1012.46 1012.86 1013.48 1013.53 1013.66 1013.53 1013.57 1013.16 1012.75 1012.99 1013.14 1013.24 1013.89 1016.31 1018.06 1018.69 1018.41 1018.89 1017.93 1016.91 1016.59 1016.50 1016.09 1015.78 1015.58 1015.48 1015.50 1015.33 1015.19 1014.92 1014.77 1014.79 1014.73 1014.62 1014.60 1014.62 1014.69 1014.72 1014.76 1014.80 1014.86 1014.93 1014.77 1014.71 1014.78 1014.79 1014.80 1014.89 1014.83
1012.61 1013.36 1013.74 1013.75 1013.34 1013.36 1013.11 1012.79 1012.93 1013.26 1013.45 1013.88 1014.54 1017.67 1018.68 1019.42 1019.36 1018.82 1018.15 1017.70 1017.47 1017.37 1017.19 1016.84 1016.45 1015.88 1015.41 1015.36 1015.31 1015.18 1015.02 1014.71 1014.56 1014.48 1014.45 1014.38 1014.40 1014.42 1014.30 1014.33 1014.42 1014.49 1014.53 1014.40 1014.29 1014.42 1014.53 1014.50 1014.57
1013.09 1013.62 1014.00 1013.75 1013.32 1013.26 1013.10 1012.91 1013.26 1013.90 1014.25 1014.64 1015.66 1017.60 1020.02 1020.21 1019.62 1019.17 1018.60 1018.46 1018.17 1018.01 1017.81 1017.49 1017.00 1016.49 1016.15 1015.76 1015.45 1015.38 1015.19 1014.84 1014.58 1014.48 1014.25 1014.17 1014.10 1014.14 1014.19 1014.15 1013.99 1013.98 1014.07 1014.04 1013.94 1013.94 1014.00 1014.11 1014.13
1013.38 1014.01 1013.90 1013.33 1013.32 1013.19 1013.02 1012.94 1013.60 1014.37 1014.93 1015.62 1015.83 1018.34 1020.62 1020.38 1019.95 1019.52 1019.41 1019.14 1018.75 1018.43 1018.05 1017.82 1017.46 1017.09 1016.56 1016.18 1015.78 1015.31 1014.95 1014.95 1014.64 1014.30 1014.12 1014.01 1013.90 1013.85 1013.86 1013.81 1013.74 1013.75 1013.59 1013.60 1013.60 1013.55 1013.52 1013.57 1013.73
1013.30 1014.01 1013.91 1013.18 1013.23 1013.41 1013.17 1013.34 1013.80 1014.75 1016.03 1016.05 1016.84 1019.15 1020.71 1020.86 1020.37 1019.86 1019.62 1019.49 1019.39 1019.07 1018.80 1018.48 1018.03 1017.56 1017.08 1016.58 1016.17 1015.87 1015.28 1014.65 1014.53 1014.23 1013.98 1013.74 1013.58 1013.50 1013.34 1013.44 1013.31 1013.20 1013.17 1013.06 1013.04 1013.04 1013.01 1013.01 1013.14
1012.83 1013.82 1014.12 1013.59 1013.38 1013.92 1013.60 1013.88 1014.69 1015.75 1016.77 1017.70 1018.70 1019.57 1020.72 1020.67 1020.32 1020.27 1020.31 1020.15 1019.92 1019.73 1019.47 1019.12 1018.82 1018.53 1018.06 1017.31 1016.83 1016.29 1015.76 1015.22 1014.48 1014.28 1013.98 1013.57 1013.14 1013.06 1012.91 1012.85 1012.83 1012.69 1012.56 1012.41 1012.47 1012.46 1012.43 1012.47 1012.55
1013.17 1013.94 1013.78 1013.62 1013.65 1013.95 1014.04 1014.29 1014.94 1016.36 1017.94 1019.31 1019.93 1020.42 1020.57 1020.74 1021.00 1021.19 1021.22 1021.12 1020.76 1020.33 1019.92 1019.61 1019.25 1018.85 1018.42 1017.84 1017.41 1016.81 1016.22 1015.71 1015.01 1014.62 1014.20 1013.71 1013.22 1012.58 1012.24 1012.22 1012.17 1012.08 1012.01 1011.81 1011.81 1011.82 1011.81 1011.96 1012.20
1013.37 1013.62 1013.51 1014.02 1013.77 1013.90 1014.29 1015.05 1015.61 1016.94 1018.57 1019.25 1020.21 1020.76 1021.09 1021.36 1021.69 1021.91 1022.06 1021.86 1021.60 1021.06 1020.50 1020.04 1019.68 1019.29 1018.87 1018.33 1017.96 1017.50 1016.82 1016.23 1015.57 1014.89 1014.29 1013.81 1013.25 1012.78 1012.25 1011.75 1011.66 1011.54 1011.55 1011.43 1011.30 1011.32 1011.35 1011.45 1011.66
1013.69 1013.41 1013.41 1013.72 1014.07 1014.23 1014.71 1015.49 1016.78 1017.45 1018.88 1019.46 1019.97 1020.57 1021.17 1021.66 1021.98 1022.19 1022.26 1022.05 1021.64 1021.12 1020.66 1020.31 1019.90 1019.60 1019.29 1018.89 1018.32 1017.81 1017.25 1016.56 1015.98 1015.46 1014.68 1014.15 1013.49 1012.63 1012.13 1011.72 1011.32 1011.07 1010.74 1010.71 1010.77 1010.88 1010.92 1010.94 1011.17
1013.79 1013.61 1013.60 1013.81 1014.15 1014.48 1014.88 1015.92 1017.47 1018.98 1019.30 1019.76 1020.25 1020.88 1021.62 1022.02 1022.24 1022.28 1022.21 1022.00 1021.66 1021.34 1020.92 1020.50 1019.93 1019.54 1019.14 1018.97 1018.57 1017.77 1017.33 1016.75 1016.30 1015.82 1015.12 1014.47 1013.76 1013.07 1012.10 1011.53 1011.01 1010.75 1010.43 1010.16 1010.35 1010.49 1010.52 1010.65 1010.88
1014.25 1014.25 1014.18 1014.26 1014.47 1014.69 1015.26 1016.58 1017.21 1019.64 1019.93 1020.39 1020.82 1021.49 1021.91 1022.09 1022.23 1022.28 1022.26 1022.02 1021.71 1021.50 1021.05 1020.51 1019.91 1019.44 1019.06 1018.58 1018.48 1017.94 1017.40 1016.91 1016.36 1015.84 1015.43 1014.72 1014.17 1013.45 1012.57 1011.59 1010.75 1010.27 1009.97 1009.72 1009.69 1009.92 1009.92 1010.15 1010.44
1014.43 1014.71 1014.50 1014.58 1014.79 1015.08 1015.53 1016.66 1017.64 1019.20 1020.09 1020.63 1021.05 1021.40 1021.77 1021.90 1021.79 1021.91 1021.95 1021.95 1021.85 1021.28 1020.66 1020.22 1019.50 1018.97 1018.67 1018.35 1018.17 1017.75 1017.24 1016.67 1016.20 1015.67 1015.03 1014.90 1014.39 1013.60 1012.75 1011.80 1010.73 1009.81 1009.29 1009.20 1009.26 1009.44 1009.72 1009.80 1010.13
1015.14 1015.31 1015.46 1014.66 1015.00 1015.19 1015.68 1016.66 1018.01 1018.78 1019.69 1020.57 1021.02 1021.29 1021.33 1021.36 1021.30 1021.38 1021.65 1021.87 1021.71 1021.34 1020.89 1020.13 1019.81 1019.33 1018.95 1018.50 1018.28 1017.74 1017.17 1016.76 1016.25 1015.65 1014.97 1014.32 1013.91 1013.52 1012.89 1011.92 1011.10 1010.10 1008.80 1008.54 1008.50 1008.69 1009.13 1009.10 1009.35
1015.78 1015.92 1015.66 1015.29 1015.19 1015.68 1016.36 1016.86 1017.93 1018.87 1019.41 1020.27 1020.64 1020.89 1020.97 1021.16 1021.27 1021.45 1021.62 1021.67 1021.51 1021.09 1020.73 1020.50 1020.26 1019.80 1019.38 1018.84 1018.56 1018.07 1017.42 1016.76 1016.06 1015.47 1014.77 1014.06 1013.47 1013.01 1012.27 1011.82 1011.20 1010.49 1009.76 1007.78 1007.50 1007.33 1007.64 1007.87 1008.46
1016.39 1016.38 1015.93 1015.74 1015.55 1015.90 1016.39 1016.95 1018.02 1018.92 1019.54 1020.30 1020.87 1021.10 1021.31 1021.26 1021.24 1021.23 1021.33 1021.32 1021.29 1021.22 1020.91 1020.92 1020.60 1020.28 1019.68 1019.12 1018.62 1017.96 1017.02 1016.24 1015.64 1015.00 1014.23 1013.55 1012.74 1012.25 1011.91 1011.43 1011.07 1010.54 1009.67 1008.96 1006.45 1006.17 1006.78 1007.17 1007.15
1016.60 1016.64 1016.67 1015.73 1015.61 1015.90 1016.27 1016.84 1017.86 1018.76 1019.50 1020.13 1020.45 1020.56 1020.85 1020.94 1021.03 1021.12 1021.48 1021.67 1021.81 1021.56 1021.57 1021.32 1020.77 1020.31 1019.84 1019.30 1018.68 1017.81 1016.89 1016.19 1015.33 1014.48 1013.53 1012.77 1012.09 1011.59 1011.20 1010.80 1010.42 1010.17 1009.57 1008.78 1008.24 1005.32 1005.20 1006.21 1006.30
1016.78 1017.06 1016.70 1016.06 1015.84 1016.41 1016.55 1016.83 1017.02 1017.89 1018.64 1019.34 1019.96 1020.45 1020.71 1020.90 1021.01 1021.20 1021.40 1021.59 1021.72 1021.69 1021.62 1021.10 1020.47 1020.01 1019.85 1019.49 1018.92 1018.45 1017.43 1016.37 1015.42 1014.16 1013.04 1012.20 1011.45 1010.62 1010.31 1009.93 1009.74 1009.46 1008.78 1007.71 1007.41 1006.91 1004.35 1003.20 1004.15
1016.93 1017.24 1017.17 1017.13 1017.00 1016.79 1016.65 1015.98 1016.66 1017.55 1018.25 1019.07 1019.68 1020.22 1020.68 1020.77 1020.81 1021.09 1021.28 1021.45 1021.48 1021.39 1021.29 1020.73 1020.05 1019.88 1019.88 1019.70 1019.00 1018.14 1017.55 1016.53 1015.51 1014.26 1013.14 1012.24 1011.44 1010.27 1009.69 1009.01 1008.85 1008.90 1008.70 1007.55 1006.80 1006.50 1006.49 1000.86 1001.09
1017.15 1017.03 1017.45 1017.76 1018.23 1018.09 1017.49 1016.35 1017.09 1017.50 1018.50 1019.04 1019.47 1019.87 1020.12 1020.45 1020.66 1020.94 1021.21 1021.46 1021.52 1021.26 1020.65 1020.10 1019.82 1019.90 1019.89 1019.81 1019.33 1018.90 1018.06 1016.78 1016.02 1014.96 1013.73 1012.92 1011.62 1009.87 1008.91 1008.34 1007.90 1007.86 1008.18 1008.14 1007.68 1005.45 1006.10 1004.21 1000.32
1017.21 1017.65 1018.27 1018.55 1018.73 1018.91 1018.35 1019.03 1015.92 1016.99 1018.14 1018.53 1019.57 1020.27 1020.30 1020.28 1020.49 1020.88 1021.20 1021.19 1021.03 1020.63 1020.16 1019.53 1019.76 1019.83 1019.77 1019.62 1019.46 1018.88 1018.11 1017.42 1016.23 1015.27 1014.01 1012.77 1011.14 1010.03 1008.55 1007.53 1007.21 1007.13 1006.62 1006.57 1006.21 1006.09 1003.86 1003.93 1000.37
1017.54 1017.95 1018.21 1018.62 1019.53 1019.40 1017.81 1018.25 1016.29 1016.83 1015.96 1017.87 1019.06 1019.75 1019.99 1020.08 1020.32 1020.62 1020.83 1020.95 1020.86 1020.07 1019.27 1019.75 1019.77 1019.58 1019.31 1019.08 1018.99 1018.79 1018.11 1017.14 1016.06 1014.96 1013.79 1012.43 1010.98 1009.90 1008.99 1007.33 1006.53 1005.98 1005.90 1005.92 1005.94 1004.57 1004.19 1003.44 1000.47
1018.26 1018.94 1019.48 1019.67 1020.38 1018.99 1018.24 1018.26 1015.01 1014.89 1015.15 1016.37 1018.25 1019.09 1019.57 1019.92 1020.36 1020.72 1020.96 1020.71 1019.28 1019.20 1019.60 1019.59 1019.47 1018.91 1018.71 1018.68 1018.54 1018.19 1017.58 1016.68 1015.86 1014.66 1013.47 1012.29 1010.98 1009.75 1008.58 1007.71 1006.67 1005.39 1004.59 1003.75 1005.46 1003.10 1001.93 1001.26 1001.68
1018.69 1019.32 1020.68 1020.94 1021.18 1019.96 1018.98 1017.28 1015.00 1015.05 1015.38 1016.66 1017.75 1018.59 1019.32 1019.82 1020.29 1020.50 1019.97 1019.07 1019.55 1019.58 1019.52 1019.22 1018.79 1018.52 1018.27 1017.93 1017.62 1017.25 1016.84 1016.00 1015.34 1014.13 1013.15 1012.20 1011.05 1009.69 1008.37 1007.30 1006.37 1004.75 1003.72 1003.64 1002.56 1003.18 1001.57 1001.14 1000.85
1019.04 1019.44 1019.91 1020.86 1022.31 1021.24 1018.45 1016.15 1015.89 1016.15 1016.60 1017.13 1017.84 1018.61 1019.20 1019.48 1019.44 1019.00 1019.40 1019.50 1019.56 1019.55 1019.15 1018.84 1018.59 1018.16 1017.71 1017.46 1016.92 1016.26 1015.76 1015.23 1014.62 1013.67 1012.79 1011.48 1010.29 1009.12 1007.93 1006.61 1005.49 1004.83 1002.63 1002.57 1002.35 1002.45 1002.49 1000.01 999.53
1019.48 1019.59 1020.39 1021.28 1022.12 1021.17 1018.34 1016.20 1015.32 1016.12 1016.47 1016.98 1017.65 1018.14 1018.42 1018.53 1018.80 1019.31 1019.50 1019.19 1019.09 1019.04 1019.00 1018.73 1018.37 1017.85 1017.35 1016.88 1016.45 1015.65 1015.06 1014.45 1013.71 1013.14 1011.78 1010.81 1010.07 1008.75 1007.25 1006.27 1005.06 1003.86 1002.56 1001.32 1001.16 1001.07 1000.68 999.84 998.53
1019.95 1019.94 1020.21 1020.56 1021.07 1020.35 1019.08 1013.76 1012.93 1013.97 1014.94 1016.27 1017.08 1017.55 1017.86 1018.39 1018.75 1018.92 1018.69 1018.61 1018.72 1018.84 1018.67 1018.34 1017.89 1017.38 1016.78 1016.33 1015.74 1015.05 1014.43 1013.65 1012.94 1012.19 1011.18 1010.22 1009.08 1008.34 1006.91 1005.83 1004.97 1003.73 1002.90 1001.44 1001.04 1000.71 1000.35 999.07 998.49
1018.12 1018.38 1019.07 1019.62 1019.13 1018.90 1018.23 1012.19 1012.48 1013.10 1014.21 1015.39 1016.44 1017.20 1017.64 1017.97 1018.00 1018.33 1018.37 1018.49 1018.58 1018.61 1018.31 1017.92 1017.50 1017.16 1016.66 1016.07 1015.48 1014.62 1013.76 1012.90 1012.13 1011.27 1010.49 1009.63 1008.70 1007.85 1006.58 1005.68 1004.42 1003.10 1001.74 1000.97 999.64 999.89 999.73 999.16 997.70
Wind_Speed
6 6 2 4 5 6 2 1 3 6 4 0 2 5 4 4 3 4 4 8 9 9 4 4 5 2 5 4 6 7 8 10 10 10 10 9 8 7 8 9 8 10 11 12 12 12 12 10 9
3 3 4 1 6 4 3 3 6 5 4 2 4 4 6 6 8 8 8 14 10 9 7 7 8 8 7 5 6 7 8 9 11 12 11 10 10 10 9 10 9 10 12 13 14 14 13 11 10
3 1 4 4 3 4 5 1 4 3 6 2 3 9 8 10 8 4 7 9 12 12 8 8 10 9 10 13 12 9 8 9 11 13 13 12 12 12 11 10 10 11 13 13 14 14 13 12 12
2 5 5 5 5 5 8 2 3 4 4 5 4 9 7 10 7 10 9 16 17 17 16 8 9 9 8 10 13 14 10 11 11 12 13 14 14 12 10 11 11 12 14 14 15 15 13 12 13
4 3 4 2 3 5 4 4 4 4 5 3 6 3 7 7 7 9 14 16 17 16 15 17 24 19 10 8 11 15 18 15 14 13 14 14 14 14 13 12 13 14 15 15 16 15 15 12 13
5 3 4 2 3 5 4 5 4 4 5 4 9 7 5 7 11 13 13 14 15 15 15 15 20 21 21 17 12 12 15 18 18 17 16 15 16 16 15 15 14 15 15 15 15 13 13 14 13
3 4 3 1 5 4 2 4 5 5 3 6 1 7 5 8 9 9 11 10 12 12 16 14 14 14 20 19 19 15 15 16 17 18 16 17 17 16 16 15 16 16 16 15 15 13 12 13 15
4 4 4 2 2 2 0 3 5 8 5 2 5 5 4 4 7 8 9 9 10 14 13 14 15 15 15 12 19 20 19 15 18 19 15 13 14 14 13 13 12 18 19 17 16 14 14 15 15
3 5 2 3 4 3 4 3 7 5 11 8 7 6 5 4 8 12 10 13 12 12 13 12 13 14 14 14 14 16 19 17 16 15 15 12 7 9 10 12 14 17 20 19 16 16 16 15 14
5 3 0 1 2 3 1 4 5 6 8 6 8 6 9 10 9 10 11 12 13 12 11 12 10 13 12 12 13 12 12 11 10 11 13 11 11 10 10 11 14 18 18 17 16 18 16 10 6
2 2 1 2 4 3 2 5 4 11 4 1 9 7 8 10 10 9 8 6 6 6 5 10 11 13 11 11 8 7 8 7 8 12 12 12 10 8 6 6 6 7 11 7 8 7 5 7 8
1 3 3 2 4 3 1 3 5 4 5 8 10 8 9 10 8 8 7 7 7 7 7 8 8 9 8 7 6 8 8 9 8 11 14 10 8 9 8 7 8 8 6 8 6 4 5 8 9
3 3 1 2 4 3 2 5 8 7 8 9 10 11 10 9 8 6 6 6 6 8 8 8 7 6 8 10 8 8 9 7 8 11 13 12 11 11 11 9 8 8 6 6 6 6 7 7 8
1 2 5 1 4 3 3 6 9 6 6 9 10 9 8 9 7 5 6 7 7 7 7 7 7 6 7 8 10 10 9 8 7 6 11 13 12 12 13 12 10 9 7 7 8 9 9 9 10
1 3 4 4 4 4 3 3 7 12 7 10 9 8 8 8 7 6 2 4 4 4 5 9 14 13 14 16 14 11 10 12 12 9 7 12 12 13 15 13 14 10 8 11 9 7 7 9 8
0 3 2 4 7 4 3 6 4 12 13 10 9 7 8 5 6 5 5 4 6 8 7 13 15 16 16 16 14 12 11 10 12 12 7 8 12 13 14 10 11 15 11 10 10 10 10 10 11
3 3 3 2 7 3 4 6 9 10 12 10 8 8 7 6 6 5 6 7 8 12 8 13 15 16 17 17 14 14 13 8 10 11 13 13 9 12 9 8 10 14 16 13 13 13 15 12 11
4 4 4 5 4 6 7 8 6 10 11 10 8 7 7 6 4 5 7 7 8 9 8 9 11 15 18 13 14 13 12 10 10 13 13 14 10 12 7 9 10 11 12 15 15 17 16 15 14
4 5 7 7 6 8 8 7 11 10 8 10 9 8 7 7 3 6 6 7 7 8 7 8 12 15 13 12 14 14 13 13 15 14 17 16 13 11 9 5 9 10 12 17 18 13 20 16 14
6 7 8 9 3 1 6 10 6 17 13 11 10 8 7 5 4 4 4 6 6 6 7 11 13 15 15 12 12 12 15 15 15 16 17 15 15 16 10 6 7 9 11 16 17 19 15 16 17
5 6 5 7 6 6 7 8 7 6 6 8 7 7 6 7 5 3 5 6 7 8 7 12 14 14 14 16 13 13 13 13 14 13 14 13 19 16 13 8 6 5 8 13 13 14 23 10 13
6 2 2 5 4 4 2 11 4 9 10 12 9 8 7 7 5 3 3 4 5 7 6 10 10 12 14 16 15 18 14 17 15 16 15 17 21 19 15 12 5 5 4 15 13 8 17 23 16
6 2 5 5 9 3 6 6 6 13 13 13 8 7 7 7 6 1 5 6 6 6 7 7 6 11 13 13 14 13 16 14 14 14 19 20 15 20 18 16 8 5 6 8 17 15 14 15 15
2 3 6 4 2 5 10 12 5 9 16 14 7 8 8 6 4 2 6 7 7 5 7 6 9 13 14 13 15 16 17 19 16 17 15 13 14 12 17 17 12 7 6 7 13 14 17 22 21
2 3 6 6 2 9 2 2 15 7 8 18 14 10 8 6 3 5 8 7 7 9 8 9 12 16 15 15 15 15 17 18 19 18 13 16 13 13 15 17 19 9 7 6 12 17 14 13 18
6 7 6 8 5 7 7 10 6 2 11 13 10 9 8 6 5 7 6 8 8 6 11 12 13 16 16 16 17 15 16 11 14 15 14 13 14 14 18 17 18 21 8 7 8 12 12 10 18
3 5 2 2 2 3 6 6 4 3 8 8 9 8 8 7 3 6 7 6 7 6 12 10 14 16 16 17 16 17 16 17 17 16 18 13 15 15 19 18 15 21 10 8 6 8 15 10 18
2 4 2 1 4 8 7 9 10 13 14 9 8 8 6 2 3 4 6 7 4 6 8 10 12 16 17 18 16 16 19 18 16 16 19 16 19 20 19 17 18 16 19 7 7 8 12 14 11
2 4 4 3 5 6 3 9 5 18 17 12 9 8 7 6 6 6 6 6 5 6 7 11 13 16 17 16 18 18 19 19 17 16 16 17 17 18 19 19 19 16 15 13 8 9 13 13 14
3 10 11 7 7 5 8 20 8 14 13 11 9 8 7 6 3 4 7 5 5 8 11 12 14 16 16 16 18 18 19 20 19 17 18 18 18 16 19 17 19 18 16 19 9 8 9 14 15
Wind_Direction
310 290 109 39 61 61 49 77 82 44 51 9 111 87 83 33 67 90 220 353 4 360 89 88 117 64 322 259 259 221 210 214 221 227 227 226 241 252 263 259 260 274 280 275 270 265 263 264 243
318 312 39 74 83 82 304 64 73 123 148 24 84 63 70 46 17 100 17 336 0 13 35 59 47 27 353 311 269 254 246 239 242 238 239 228 239 246 255 263 249 252 266 273 270 266 262 255 236
290 213 82 104 128 131 131 329 62 140 112 99 69 57 32 313 19 50 315 351 21 18 44 40 51 32 3 340 328 291 254 238 243 251 252 245 244 260 244 255 254 252 252 261 265 264 263 257 245
21 13 15 83 127 25 129 135 74 127 42 38 126 63 102 344 38 350 15 33 34 17 11 23 30 22 358 334 314 312 291 271 261 257 253 256 257 255 251 244 244 251 254 252 257 254 258 261 259
40 68 36 28 62 110 94 93 60 8 125 160 88 84 90 6 28 28 34 34 34 28 20 20 14 352 344 333 325 323 318 302 276 265 264 261 257 256 247 240 242 246 255 256 256 259 256 250 261
17 92 48 80 116 135 60 65 91 70 38 15 76 98 56 307 30 23 30 34 30 29 20 15 13 11 6 341 317 312 304 304 304 286 273 265 260 258 256 252 246 245 250 255 251 250 249 252 248
100 74 225 144 164 65 130 95 86 93 62 4 10 89 152 15 12 30 28 25 27 24 25 16 11 3 8 358 349 322 309 297 288 293 289 279 266 258 257 249 253 251 247 247 248 247 251 248 243
97 96 309 38 113 104 308 66 121 93 22 166 38 84 47 330 25 33 30 26 28 24 18 15 12 7 3 3 359 349 344 341 328 304 283 275 266 262 253 254 254 254 249 242 242 244 246 242 234
77 66 326 8 70 123 342 105 39 46 84 41 49 91 135 56 38 39 26 24 26 23 19 9 13 9 4 4 357 351 347 339 339 333 312 285 265 258 252 248 243 249 251 245 239 241 244 236 220
76 92 235 23 63 130 107 119 123 80 99 76 84 67 70 52 42 44 34 27 16 15 15 12 5 8 2 4 357 352 346 337 335 330 322 317 297 269 244 239 241 243 241 241 242 240 240 220 200
346 199 38 51 109 61 55 52 11 128 58 122 142 119 83 64 44 42 32 32 12 328 2 12 5 2 360 359 353 349 340 336 333 331 328 318 312 298 269 258 248 239 235 232 231 242 225 190 188
26 281 67 39 52 67 49 79 69 40 123 149 126 118 94 78 65 49 36 18 0 354 349 359 2 3 351 350 345 339 339 332 336 330 325 325 315 306 292 271 257 243 217 214 219 202 190 184 181
173 245 349 69 79 88 3 139 132 114 147 122 102 90 88 76 68 47 38 11 1 357 350 344 348 354 348 350 340 338 332 326 332 330 327 325 318 309 299 286 265 248 233 198 189 178 164 159 161
315 332 293 145 156 157 139 130 90 233 145 107 102 102 101 96 84 49 25 8 5 349 341 329 327 338 339 350 340 334 329 315 314 316 319 323 328 320 313 294 274 260 229 216 191 185 173 171 171
88 346 17 201 200 228 151 257 184 150 151 128 127 124 119 115 88 72 47 12 346 328 339 358 353 354 349 344 337 330 327 327 321 307 297 313 314 315 315 314 295 270 236 221 204 188 188 163 167
136 133 152 246 160 251 110 273 148 162 142 146 134 127 120 123 107 80 55 32 5 349 351 4 351 346 344 341 331 320 317 317 316 307 299 298 307 310 303 305 315 306 263 220 203 186 190 181 173
355 266 257 295 207 158 162 249 168 174 157 149 150 141 129 103 75 65 67 45 15 354 354 2 349 345 339 336 326 318 300 296 303 303 300 282 283 298 297 312 313 313 314 241 221 199 194 182 179
274 300 295 265 232 202 201 241 179 174 157 158 154 146 136 113 92 78 62 37 19 347 348 349 348 345 339 335 324 316 306 298 303 303 291 280 290 284 301 300 306 312 301 306 235 219 199 194 180
261 259 250 261 246 200 226 238 189 179 159 166 169 161 143 109 109 78 60 25 7 348 331 333 345 344 338 335 327 319 316 318 309 299 289 280 278 278 269 271 294 304 296 284 304 230 204 197 184
231 261 270 286 168 312 259 248 236 184 181 169 165 163 142 119 87 79 47 20 351 331 325 342 344 345 341 333 326 325 314 311 311 313 308 299 285 279 256 254 277 299 298 297 282 307 241 186 176
246 227 252 255 333 297 281 274 187 191 154 170 168 142 138 136 114 57 20 354 343 329 323 341 344 342 339 337 323 320 313 308 312 313 316 317 307 293 269 234 245 280 310 283 274 279 300 222 175
260 164 225 282 357 241 118 287 214 179 182 183 177 159 147 128 107 66 339 303 317 297 325 340 338 338 333 332 326 323 317 312 312 306 306 310 315 301 285 263 219 273 267 297 250 272 266 289 183
240 52 248 248 244 1 232 254 256 166 204 194 171 165 148 145 124 43 300 288 287 298 323 339 325 322 325 329 327 321 311 303 305 301 308 302 297 310 298 278 231 220 279 294 286 262 278 287 223
15 309 262 213 162 257 231 201 233 183 215 173 167 161 151 137 128 275 267 269 268 270 357 325 317 320 323 327 325 311 306 304 302 303 302 306 298 300 301 306 249 215 236 277 296 304 271 254 263
78 50 321 341 335 237 183 277 246 212 188 170 158 161 156 143 187 248 262 263 342 349 328 319 319 320 321 320 318 309 307 301 303 302 300 301 305 299 296 301 306 240 233 270 279 289 282 282 294
192 164 167 261 238 271 324 255 242 146 121 126 141 148 150 168 208 239 274 357 327 316 323 319 323 315 315 315 313 312 305 299 303 294 302 295 292 289 294 295 293 292 221 241 301 281 291 269 282
180 183 165 289 104 8 238 279 339 130 139 142 147 152 171 179 237 359 331 308 304 307 323 316 313 311 313 313 312 313 308 308 297 302 296 288 287 292 296 289 289 313 246 238 265 280 278 276 279
216 173 86 68 285 273 267 260 232 191 198 181 168 162 167 139 348 278 266 280 276 314 301 303 307 313 313 311 312 310 312 306 300 304 293 305 296 289 288 292 295 290 296 224 252 284 293 282 271
145 227 230 185 174 233 284 251 232 191 188 183 181 166 176 203 226 246 287 284 297 294 301 308 313 314 313 313 311 310 310 307 301 300 299 298 298 307 304 302 294 300 298 261 225 252 278 284 277
178 201 187 205 222 241 256 272 173 185 180 160 166 173 182 198 246 282 284 276 306 314 315 312 314 315 314 310 309 307 310 309 303 298 300 296 291 292 289 293 291 290 286 290 246 257 277 284 305